| time (UTC) | temp F | wind direction | speed knots | gust knots | rain 1hr in | rain 24hr in | rain mn in | humidity % | barometer mb |
| 20260505005202 | 64 | 135 | 3.5 | 6.1 | 0.00 | 0.00 | 0.00 | ||
| 20260505004800 | 64 | 143 | 3.5 | 7.0 | 0.00 | 0.00 | 0.00 | ||
| 20260505004359 | 64 | 135 | 3.5 | 6.1 | 0.00 | 0.00 | 0.00 | ||
| 20260505003958 | 64 | 139 | 3.5 | 5.2 | 0.00 | 0.00 | 0.00 | ||
| 20260505003555 | 64 | 157 | 3.5 | 5.2 | 0.00 | 0.00 | 0.00 | ||
| 20260505003147 | 65 | 202 | 3.5 | 7.8 | 0.00 | 0.00 | 0.00 | ||
| 20260505002745 | 65 | 157 | 3.5 | 5.2 | 0.00 | 0.00 | 0.00 | ||
| 20260505002344 | 65 | 157 | 4.3 | 6.1 | 0.00 | 0.00 | 0.00 | ||
| 20260505001942 | 65 | 157 | 2.6 | 6.1 | 0.00 | 0.00 | 0.00 | ||
| 20260505001540 | 66 | 144 | 4.3 | 7.0 | 0.00 | 0.00 | 0.00 | ||
| 20260505001139 | 65 | 157 | 3.5 | 6.1 | 0.00 | 0.00 | 0.00 | ||
| 20260505000737 | 65 | 157 | 3.5 | 5.2 | 0.00 | 0.00 | 0.00 | ||
| 20260505000336 | 65 | 146 | 4.3 | 7.0 | 0.00 | 0.00 | 0.00 | ||
| 20260504235935 | 65 | 135 | 3.5 | 5.2 | 0.00 | 0.00 | 0.00 | ||
| 20260504235532 | 65 | 122 | 5.2 | 8.7 | 0.00 | 0.00 | 0.00 | ||
| 20260504235124 | 65 | 127 | 4.3 | 6.1 | 0.00 | 0.00 | 0.00 | ||
| 20260504234723 | 65 | 112 | 3.5 | 5.2 | 0.00 | 0.00 | 0.00 | ||
| 20260504234320 | 65 | 117 | 4.3 | 7.0 | 0.00 | 0.00 | 0.00 | ||
| 20260504233919 | 65 | 135 | 2.6 | 6.1 | 0.00 | 0.00 | 0.00 | ||
| 20260504233518 | 65 | 135 | 3.5 | 7.0 | 0.00 | 0.00 | 0.00 | ||
| 20260504233117 | 65 | 135 | 3.5 | 5.2 | 0.00 | 0.00 | 0.00 | ||
| 20260504232714 | 65 | 135 | 3.5 | 6.1 | 0.00 | 0.00 | 0.00 | ||
| 20260504232313 | 65 | 135 | 4.3 | 6.1 | 0.00 | 0.00 | 0.00 | ||
| 20260504231912 | 66 | 145 | 3.5 | 6.1 | 0.00 | 0.00 | 0.00 | ||
| 20260504231510 | 66 | 135 | 3.5 | 7.0 | 0.00 | 0.00 | 0.00 | ||
| 20260504231101 | 66 | 157 | 4.3 | 7.8 | 0.00 | 0.00 | 0.00 | ||
| 20260504230659 | 66 | 154 | 4.3 | 7.0 | 0.00 | 0.00 | 0.00 | ||
| 20260504230258 | 66 | 144 | 5.2 | 7.0 | 0.00 | 0.00 | 0.00 | ||
| 20260504225857 | 66 | 148 | 5.2 | 7.0 | 0.00 | 0.00 | 0.00 | ||
| 20260504225455 | 66 | 139 | 6.1 | 8.7 | 0.00 | 0.00 | 0.00 | ||
| 20260504225053 | 66 | 144 | 6.1 | 8.7 | 0.00 | 0.00 | 0.00 | ||
| 20260504224651 | 66 | 136 | 7.0 | 9.6 | 0.00 | 0.00 | 0.00 | ||
| 20260504224250 | 66 | 131 | 6.1 | 7.8 | 0.00 | 0.00 | 0.00 | ||
| 20260504223849 | 66 | 141 | 6.1 | 8.7 | 0.00 | 0.00 | 0.00 | ||
| 20260504223446 | 66 | 143 | 6.1 | 10.4 | 0.00 | 0.00 | 0.00 | ||
| 20260504223047 | 67 | 143 | 7.8 | 10.4 | 0.00 | 0.00 | 0.00 | ||
| 20260504223038 | 67 | 143 | 7.8 | 10.4 | 0.00 | 0.00 | 0.00 | ||
| 20260504222636 | 67 | 138 | 7.0 | 10.4 | 0.00 | 0.00 | 0.00 | ||
| 20260504222235 | 67 | 132 | 6.1 | 11.3 | 0.00 | 0.00 | 0.00 | ||
| 20260504221833 | 66 | 140 | 6.1 | 8.7 | 0.00 | 0.00 | 0.00 | ||
| 20260504221431 | 67 | 152 | 5.2 | 8.7 | 0.00 | 0.00 | 0.00 | ||
| 20260504221030 | 67 | 151 | 6.1 | 8.7 | 0.00 | 0.00 | 0.00 | ||
| 20260504220629 | 66 | 154 | 4.3 | 7.0 | 0.00 | 0.00 | 0.00 | ||
| 20260504220226 | 67 | 156 | 4.3 | 7.8 | 0.00 | 0.00 | 0.00 | ||
| 20260504215825 | 67 | 146 | 4.3 | 6.1 | 0.00 | 0.00 | 0.00 | ||
| 20260504215424 | 67 | 139 | 3.5 | 5.2 | 0.00 | 0.00 | 0.00 | ||
| 20260504215016 | 67 | 158 | 5.2 | 8.7 | 0.00 | 0.00 | 0.00 | ||
| 20260504214614 | 67 | 151 | 3.5 | 5.2 | 0.00 | 0.00 | 0.00 | ||
| 20260504214212 | 67 | 169 | 4.3 | 6.1 | 0.00 | 0.00 | 0.00 | ||
| 20260504213811 | 67 | 180 | 2.6 | 5.2 | 0.00 | 0.00 | 0.00 | ||
| 20260504213409 | 67 | 143 | 3.5 | 8.7 | 0.00 | 0.00 | 0.00 | ||
| 20260504213008 | 67 | 156 | 2.6 | 6.1 | 0.00 | 0.00 | 0.00 | ||
| 20260504212605 | 67 | 147 | 1.7 | 2.6 | 0.00 | 0.00 | 0.00 | ||
| 20260504212204 | 67 | 141 | 1.7 | 4.3 | 0.00 | 0.00 | 0.00 | ||
| 20260504211803 | 67 | 157 | 3.5 | 5.2 | 0.00 | 0.00 | 0.00 | ||
| 20260504211401 | 67 | 137 | 2.6 | 6.1 | 0.00 | 0.00 | 0.00 | ||
| 20260504210952 | 67 | 152 | 3.5 | 6.1 | 0.00 | 0.00 | 0.00 | ||
| 20260504210550 | 67 | 135 | 2.6 | 6.1 | 0.00 | 0.00 | 0.00 | ||
| 20260504210149 | 67 | 137 | 3.5 | 6.1 | 0.00 | 0.00 | 0.00 | ||
| 20260504205748 | 67 | 137 | 2.6 | 5.2 | 0.00 | 0.00 | 0.00 | ||
| 20260504205345 | 67 | 135 | 0.9 | 3.5 | 0.00 | 0.00 | 0.00 | ||
| 20260504204944 | 67 | 135 | 1.7 | 2.6 | 0.00 | 0.00 | 0.00 | ||
| 20260504204542 | 67 | 140 | 2.6 | 6.1 | 0.00 | 0.00 | 0.00 | ||
| 20260504204141 | 67 | 157 | 3.5 | 3.5 | 0.00 | 0.00 | 0.00 | ||
| 20260504203337 | 68 | 157 | 1.7 | 2.6 | 0.00 | 0.00 | 0.00 | ||
| 20260504202929 | 67 | 135 | 2.6 | 4.3 | 0.00 | 0.00 | 0.00 | ||
| 20260504202528 | 67 | 135 | 0.9 | 2.6 | 0.00 | 0.00 | 0.00 | ||
| 20260504202127 | 67 | 135 | 0.9 | 2.6 | 0.00 | 0.00 | 0.00 | ||
| 20260504201725 | 67 | 135 | 1.7 | 3.5 | 0.00 | 0.00 | 0.00 | ||
| 20260504201323 | 67 | 137 | 3.5 | 5.2 | 0.00 | 0.00 | 0.00 | ||
| 20260504200922 | 67 | 135 | 0.9 | 3.5 | 0.00 | 0.00 | 0.00 | ||
| 20260504200520 | 66 | 135 | 0.0 | 0.9 | 0.00 | 0.00 | 0.00 | ||
| 20260504200118 | 67 | 132 | 1.7 | 2.6 | 0.00 | 0.00 | 0.00 | ||
| 20260504195717 | 67 | 135 | 2.6 | 3.5 | 0.00 | 0.00 | 0.00 | ||
| 20260504195315 | 66 | 135 | 1.7 | 3.5 | 0.00 | 0.00 | 0.00 | ||
| 20260504194907 | 67 | 135 | 0.0 | 0.0 | 0.00 | 0.00 | 0.00 | ||
| 20260504194504 | 68 | 135 | 0.9 | 3.5 | 0.00 | 0.00 | 0.00 | ||
| 20260504194102 | 67 | 135 | 1.7 | 2.6 | 0.00 | 0.00 | 0.00 | ||
| 20260504193701 | 68 | 144 | 1.7 | 1.7 | 0.00 | 0.00 | 0.00 | ||
| 20260504193259 | 68 | 147 | 2.6 | 3.5 | 0.00 | 0.00 | 0.00 | ||
| 20260504192858 | 69 | 135 | 1.7 | 3.5 | 0.00 | 0.00 | 0.00 | ||
| 20260504192455 | 68 | 135 | 3.5 | 5.2 | 0.00 | 0.00 | 0.00 | ||
| 20260504192053 | 69 | 151 | 3.5 | 5.2 | 0.00 | 0.00 | 0.00 | ||
| 20260504191652 | 69 | 135 | 1.7 | 3.5 | 0.00 | 0.00 | 0.00 | ||
| 20260504191250 | 69 | 135 | 1.7 | 3.5 | 0.00 | 0.00 | 0.00 | ||
| 20260504190841 | 69 | 135 | 3.5 | 4.3 | 0.00 | 0.00 | 0.00 | ||
| 20260504190439 | 69 | 135 | 2.6 | 3.5 | 0.00 | 0.00 | 0.00 | ||
| 20260504190038 | 70 | 135 | 2.6 | 3.5 | 0.00 | 0.00 | 0.00 | ||
| 20260504185637 | 70 | 135 | 2.6 | 3.5 | 0.00 | 0.00 | 0.00 | ||
| 20260504185234 | 70 | 135 | 2.6 | 4.3 | 0.00 | 0.00 | 0.00 | ||
| 20260504184833 | 70 | 135 | 2.6 | 4.3 | 0.00 | 0.00 | 0.00 | ||
| 20260504184431 | 70 | 157 | 1.7 | 4.3 | 0.00 | 0.00 | 0.00 | ||
| 20260504184031 | 71 | 157 | 1.7 | 4.3 | 0.00 | 0.00 | 0.00 | ||
| 20260504183628 | 71 | 157 | 2.6 | 4.3 | 0.00 | 0.00 | 0.00 | ||
| 20260504183227 | 72 | 157 | 3.5 | 4.3 | 0.00 | 0.00 | 0.00 | ||
| 20260504182819 | 72 | 180 | 3.5 | 5.2 | 0.00 | 0.00 | 0.00 | ||
| 20260504182417 | 72 | 180 | 3.5 | 5.2 | 0.00 | 0.00 | 0.00 | ||
| 20260504182016 | 72 | 157 | 2.6 | 4.3 | 0.00 | 0.00 | 0.00 | ||
| 20260504181614 | 72 | 159 | 2.6 | 4.3 | 0.00 | 0.00 | 0.00 | ||
| 20260504181212 | 73 | 188 | 3.5 | 7.0 | 0.00 | 0.00 | 0.00 | ||
| 20260504180811 | 73 | 185 | 2.6 | 3.5 | 0.00 | 0.00 | 0.00 | ||
| 20260504180409 | 73 | 198 | 3.5 | 5.2 | 0.00 | 0.00 | 0.00 | ||
| 20260504180007 | 74 | 180 | 3.5 | 6.1 | 0.00 | 0.00 | 0.00 | ||
| 20260504175606 | 73 | 192 | 4.3 | 7.8 | 0.00 | 0.00 | 0.00 | ||
| 20260504175204 | 74 | 202 | 3.5 | 5.2 | 0.00 | 0.00 | 0.00 | ||
| 20260504174756 | 74 | 198 | 3.5 | 6.1 | 0.00 | 0.00 | 0.00 | ||
| 20260504174353 | 74 | 202 | 4.3 | 7.0 | 0.00 | 0.00 | 0.00 | ||
| 20260504173952 | 74 | 207 | 5.2 | 7.8 | 0.00 | 0.00 | 0.00 | ||
| 20260504173551 | 74 | 202 | 5.2 | 8.7 | 0.00 | 0.00 | 0.00 | ||
| 20260504173149 | 75 | 197 | 6.1 | 9.6 | 0.00 | 0.00 | 0.00 | ||
| 20260504172747 | 75 | 199 | 6.1 | 8.7 | 0.00 | 0.00 | 0.00 | ||
| 20260504172345 | 75 | 200 | 7.8 | 13.9 | 0.00 | 0.00 | 0.00 | ||
| 20260504171944 | 75 | 200 | 7.8 | 11.3 | 0.00 | 0.00 | 0.00 | ||
| 20260504171543 | 75 | 201 | 8.7 | 13.9 | 0.00 | 0.00 | 0.00 | ||
| 20260504171141 | 75 | 207 | 7.0 | 11.3 | 0.00 | 0.00 | 0.00 | ||
| 20260504170732 | 75 | 211 | 8.7 | 11.3 | 0.00 | 0.00 | 0.00 | ||
| 20260504170330 | 76 | 209 | 7.8 | 12.2 | 0.00 | 0.00 | 0.00 | ||
| 20260504160300 | 81 | 193 | 5.2 | 8.7 | 0.00 | 0.00 | 0.00 | ||
| 20260504151032 | 81 | 167 | 6.1 | 8.7 | 0.00 | 0.00 | 0.00 | ||
| 20260504150624 | 81 | 197 | 8.7 | 13.0 | 0.00 | 0.00 | 0.00 | ||
| 20260504150222 | 81 | 176 | 7.8 | 10.4 | 0.00 | 0.00 | 0.00 | ||
| 20260504140954 | 81 | 166 | 7.8 | 9.6 | 0.00 | 0.00 | 0.00 | ||
| 20260504140553 | 81 | 162 | 9.6 | 13.9 | 0.00 | 0.00 | 0.00 | ||
| 20260504140150 | 81 | 164 | 10.4 | 13.9 | 0.00 | 0.00 | 0.00 | ||
| 20260504130513 | 80 | 189 | 7.0 | 10.4 | 0.00 | 0.00 | 0.00 | ||
| 20260504130111 | 79 | 207 | 6.1 | 9.6 | 0.00 | 0.00 | 0.00 | ||
| 20260504110403 | 80 | 158 | 8.7 | 12.2 | 0.00 | 0.00 | 0.00 | ||
| 20260504100333 | 77 | 182 | 8.7 | 11.3 | 0.00 | 0.00 | 0.00 | ||
| 20260504081829 | 73 | 151 | 9.6 | 15.6 | 0.00 | 0.00 | 0.00 | ||
| 20260504081428 | 73 | 150 | 8.7 | 13.9 | 0.00 | 0.00 | 0.00 | ||
| 20260504081027 | 72 | 135 | 9.6 | 14.8 | 0.00 | 0.00 | 0.00 | ||
| 20260504080743 | 73 | 151 | 8.7 | 14.8 | 0.00 | 0.00 | 0.00 | ||
| 20260504080625 | 73 | 151 | 8.7 | 14.8 | 0.00 | 0.00 | 0.00 | ||
| 20260504080224 | 73 | 144 | 8.7 | 11.3 | 0.00 | 0.00 | 0.00 | ||
| 20260504070145 | 75 | 164 | 7.8 | 11.3 | 0.00 | 0.00 | 0.00 | ||
| 20260504060114 | 68 | 148 | 7.8 | 12.2 | 0.00 | 0.00 | 0.00 | ||
| 20260504050442 | 66 | 145 | 8.7 | 13.0 | 0.00 | 0.00 | 0.00 | ||
| 20260504045633 | 65 | 144 | 8.7 | 13.9 | 0.00 | 0.00 | 0.00 | ||
| 20260504045230 | 65 | 137 | 9.6 | 13.9 | 0.00 | 0.00 | 0.00 | ||
| 20260504044829 | 64 | 136 | 8.7 | 17.4 | 0.00 | 0.00 | 0.00 | ||
| 20260504044428 | 65 | 137 | 6.1 | 10.4 | 0.00 | 0.00 | 0.00 | ||
| 20260504044027 | 64 | 158 | 9.6 | 12.2 | 0.00 | 0.00 | 0.00 | ||
| 20260504043625 | 64 | 141 | 6.1 | 8.7 | 0.00 | 0.00 | 0.00 | ||
| 20260504043223 | 64 | 148 | 7.8 | 11.3 | 0.00 | 0.00 | 0.00 | ||
| 20260504042822 | 64 | 139 | 8.7 | 13.0 | 0.00 | 0.00 | 0.00 | ||
| 20260504042420 | 64 | 150 | 7.8 | 11.3 | 0.00 | 0.00 | 0.00 | ||
| 20260504042012 | 64 | 145 | 7.0 | 9.6 | 0.00 | 0.00 | 0.00 | ||
| 20260504041609 | 63 | 150 | 7.0 | 9.6 | 0.00 | 0.00 | 0.00 | ||
| 20260504041208 | 63 | 139 | 7.8 | 13.0 | 0.00 | 0.00 | 0.00 | ||
| 20260504040807 | 63 | 146 | 7.0 | 9.6 | 0.00 | 0.00 | 0.00 | ||
| 20260504040405 | 62 | 150 | 7.0 | 10.4 | 0.00 | 0.00 | 0.00 | ||
| 20260504040003 | 62 | 143 | 7.0 | 11.3 | 0.00 | 0.00 | 0.00 | ||
| 20260504035601 | 62 | 148 | 7.0 | 9.6 | 0.00 | 0.00 | 0.00 | ||
| 20260504035200 | 62 | 141 | 6.1 | 10.4 | 0.00 | 0.00 | 0.00 | ||
| 20260504034759 | 61 | 141 | 7.0 | 10.4 | 0.00 | 0.00 | 0.00 | ||
| 20260504034356 | 61 | 141 | 7.0 | 9.6 | 0.00 | 0.00 | 0.00 | ||
| 20260504033948 | 61 | 150 | 7.0 | 8.7 | 0.00 | 0.00 | 0.00 | ||
| 20260504033546 | 61 | 148 | 7.0 | 9.6 | 0.00 | 0.00 | 0.00 | ||
| 20260504033145 | 61 | 153 | 7.8 | 13.9 | 0.00 | 0.00 | 0.00 | ||
| 20260504032744 | 61 | 141 | 8.7 | 12.2 | 0.00 | 0.00 | 0.00 | ||
| 20260504032341 | 61 | 136 | 8.7 | 11.3 | 0.00 | 0.00 | 0.00 | ||
| 20260504031940 | 61 | 143 | 7.8 | 10.4 | 0.00 | 0.00 | 0.00 | ||
| 20260504031538 | 60 | 144 | 7.8 | 11.3 | 0.00 | 0.00 | 0.00 | ||
| 20260504031137 | 61 | 136 | 7.8 | 10.4 | 0.00 | 0.00 | 0.00 | ||
| 20260504030735 | 61 | 139 | 9.6 | 12.2 | 0.00 | 0.00 | 0.00 | ||
| 20260504030333 | 61 | 139 | 7.8 | 12.2 | 0.00 | 0.00 | 0.00 | ||
| 20260504025524 | 61 | 142 | 8.7 | 11.3 | 0.00 | 0.00 | 0.00 | ||
| 20260504025121 | 60 | 141 | 7.0 | 8.7 | 0.00 | 0.00 | 0.00 | ||
| 20260504024720 | 61 | 141 | 7.0 | 11.3 | 0.00 | 0.00 | 0.00 | ||
| 20260504024319 | 61 | 143 | 7.8 | 11.3 | 0.00 | 0.00 | 0.00 | ||
| 20260504023918 | 60 | 141 | 7.8 | 12.2 | 0.00 | 0.00 | 0.00 | ||
| 20260504023515 | 60 | 137 | 7.0 | 9.6 | 0.00 | 0.00 | 0.00 | ||
| 20260504023114 | 61 | 133 | 7.8 | 13.9 | 0.00 | 0.00 | 0.00 | ||
| 20260504022713 | 61 | 145 | 7.8 | 11.3 | 0.00 | 0.00 | 0.00 | ||
| 20260504022311 | 61 | 135 | 7.0 | 9.6 | 0.00 | 0.00 | 0.00 | ||
| 20260504021903 | 61 | 137 | 7.8 | 11.3 | 0.00 | 0.00 | 0.00 | ||
| 20260504021500 | 61 | 130 | 6.1 | 8.7 | 0.00 | 0.00 | 0.00 | ||
| 20260504021059 | 61 | 135 | 6.1 | 8.7 | 0.00 | 0.00 | 0.00 | ||
| 20260504020658 | 61 | 148 | 8.7 | 15.6 | 0.00 | 0.00 | 0.00 | ||
| 20260504020256 | 61 | 137 | 6.1 | 9.6 | 0.00 | 0.00 | 0.00 | ||
| 20260504015854 | 61 | 137 | 7.8 | 12.2 | 0.00 | 0.00 | 0.00 | ||
| 20260504015452 | 61 | 137 | 7.0 | 10.4 | 0.00 | 0.00 | 0.00 | ||
| 20260504015051 | 61 | 138 | 6.1 | 8.7 | 0.00 | 0.00 | 0.00 | ||
| 20260504014650 | 61 | 138 | 5.2 | 8.7 | 0.00 | 0.00 | 0.00 | ||
| 20260504014247 | 61 | 131 | 7.8 | 11.3 | 0.00 | 0.00 | 0.00 | ||
| 20260504013839 | 61 | 136 | 6.1 | 7.8 | 0.00 | 0.00 | 0.00 | ||
| 20260504013437 | 61 | 138 | 7.8 | 10.4 | 0.00 | 0.00 | 0.00 | ||
| 20260504013036 | 61 | 138 | 7.8 | 10.4 | 0.00 | 0.00 | 0.00 | ||
| 20260504012634 | 61 | 135 | 7.0 | 10.4 | 0.00 | 0.00 | 0.00 | ||
| 20260504012233 | 61 | 137 | 7.0 | 10.4 | 0.00 | 0.00 | 0.00 | ||
| 20260504011832 | 61 | 129 | 6.1 | 10.4 | 0.00 | 0.00 | 0.00 | ||
| 20260504011430 | 61 | 133 | 7.0 | 13.9 | 0.00 | 0.00 | 0.00 | ||
| 20260504011029 | 61 | 143 | 5.2 | 8.7 | 0.00 | 0.00 | 0.00 | ||
| 20260504010627 | 61 | 144 | 3.5 | 5.2 | 0.00 | 0.00 | 0.00 | ||
| 20260504010225 | 61 | 153 | 5.2 | 7.8 | 0.00 | 0.00 | 0.00 | ||
| 20260504005817 | 61 | 152 | 6.1 | 9.6 | 0.00 | 0.00 | 0.00 |